Tracking 19562 objects as of 24-Mar-2019
HD Live streaming from Space Station
objects crossing your sky now

APRIZESAT 6

Track APRIZESAT 6 now!
10-day predictions
APRIZESAT 6 is classified as:


NORAD ID: 37793
Int'l Code: 2011-044F
Perigee: 627.7 km
Apogee: 693.6 km
Inclination: 98.4 °
Period: 97.8 minutes
Semi major axis: 7031 km
RCS: 0.203 m2 (medium)
Launch date: August 17, 2011
Source: United States (US)
Launch site: Orenburg, Russia (OREN)
aabbcc
Your satellite tracking list
Your tracking list is empty




NASA's NSSDC Master Catalog

Two Line Element Set (TLE):
1 37793U 11044F   19083.17804729  .00000055  00000-0  17360-4 0  9999
2 37793  98.3758 237.6027 0046821 189.4800 270.8179 14.72372680408173
Source of the keplerian elements: AFSPC